• In Italy
  • List of Countries
  • For 7 days
  • Water Temperature
  • Satellite Maps
  • Weather Map
  • Weather Widgets
  • user-avatar
    Login

    Hourly Weather Pabna

    Today, 21 June, Thursday

    Time Temperature Precipitation Wind Pressure Humidity
    00:00 +33°C° 0 mm 1 mps 749 mmHg 67%
    01:00 +34°C° 0.2 mm 2 mps 749 mmHg 68%
    02:00 +34°C° 0.2 mm 2 mps 749 mmHg 70%
    03:00 +32°C° 0.2 mm 2 mps 749 mmHg 72%
    04:00 +32°C° 0 mm 2 mps 749 mmHg 72%
    05:00 +32°C° 0 mm 2 mps 749 mmHg 73%
    06:00 +32°C° 0 mm 2 mps 749 mmHg 80%
    07:00 +34°C° 0.7 mm 2 mps 749 mmHg 73%
    08:00 +36°C° 0.7 mm 3 mps 749 mmHg 65%
    09:00 +37°C° 0.7 mm 4 mps 750 mmHg 58%
    10:00 +38°C° 0.1 mm 4 mps 749 mmHg 53%
    11:00 +41°C° 0.1 mm 4 mps 749 mmHg 48%
    12:00 +42°C° 0.1 mm 3 mps 748 mmHg 43%
    13:00 +42°C° 0 mm 3 mps 748 mmHg 43%
    14:00 +42°C° 0 mm 3 mps 747 mmHg 44%
    15:00 +40°C° 0 mm 3 mps 746 mmHg 44%
    16:00 +40°C° 0 mm 3 mps 746 mmHg 45%
    17:00 +40°C° 0 mm 3 mps 746 mmHg 46%
    18:00 +41°C° 0 mm 4 mps 746 mmHg 47%
    19:00 +40°C° 0 mm 4 mps 746 mmHg 50%
    20:00 +39°C° 0 mm 5 mps 746 mmHg 52%
    21:00 +38°C° 0 mm 6 mps 747 mmHg 55%
    22:00 +36°C° 0.1 mm 6 mps 747 mmHg 59%
    23:00 +35°C° 0.1 mm 6 mps 747 mmHg 62%

    Tomorrow, 22 June, Friday

    Time Temperature Precipitation Wind Pressure Humidity
    00:00 +34°C° 0.1 mm 7 mps 748 mmHg 66%
    01:00 +33°C° 0.2 mm 6 mps 748 mmHg 69%
    02:00 +33°C° 0.2 mm 6 mps 748 mmHg 71%
    03:00 +32°C° 0.2 mm 5 mps 748 mmHg 73%
    04:00 +32°C° 0 mm 5 mps 748 mmHg 74%
    05:00 +32°C° 0 mm 5 mps 748 mmHg 75%
    06:00 +32°C° 0 mm 5 mps 748 mmHg 76%
    07:00 +34°C° 0 mm 5 mps 749 mmHg 71%
    08:00 +35°C° 0 mm 6 mps 749 mmHg 66%
    09:00 +36°C° 0 mm 6 mps 749 mmHg 61%
    10:00 +39°C° 0 mm 6 mps 749 mmHg 55%
    11:00 +40°C° 0 mm 6 mps 748 mmHg 50%
    12:00 +42°C° 0 mm 6 mps 748 mmHg 45%
    13:00 +42°C° 0 mm 6 mps 747 mmHg 43%
    14:00 +44°C° 0 mm 6 mps 747 mmHg 42%
    15:00 +44°C° 0 mm 6 mps 746 mmHg 40%
    16:00 +42°C° 0 mm 6 mps 746 mmHg 43%
    17:00 +41°C° 0 mm 6 mps 745 mmHg 46%
    18:00 +40°C° 0 mm 6 mps 745 mmHg 49%
    19:00 +39°C° 0.2 mm 6 mps 746 mmHg 52%
    20:00 +38°C° 0.2 mm 7 mps 746 mmHg 56%
    21:00 +35°C° 0.2 mm 7 mps 747 mmHg 60%
    22:00 +34°C° 0.4 mm 7 mps 747 mmHg 63%
    23:00 +34°C° 0.4 mm 7 mps 747 mmHg 67%

    Day after tomorrow, 23 June, Saturday

    Time Temperature Precipitation Wind Pressure Humidity
    00:00 +33°C° 0.4 mm 6 mps 747 mmHg 70%
    01:00 +33°C° 0.1 mm 6 mps 747 mmHg 72%
    02:00 +32°C° 0.1 mm 6 mps 747 mmHg 73%
    03:00 +32°C° 0.1 mm 5 mps 747 mmHg 75%
    04:00 +32°C° 0 mm 5 mps 747 mmHg 75%
    05:00 +32°C° 0 mm 5 mps 747 mmHg 76%
    06:00 +32°C° 0 mm 5 mps 748 mmHg 77%
    07:00 +33°C° 0 mm 5 mps 748 mmHg 73%
    08:00 +34°C° 0 mm 5 mps 748 mmHg 69%
    09:00 +35°C° 0 mm 6 mps 748 mmHg 65%
    10:00 +37°C° 0 mm 5 mps 748 mmHg 60%
    11:00 +39°C° 0 mm 5 mps 748 mmHg 54%
    12:00 +41°C° 0 mm 5 mps 748 mmHg 48%
    13:00 +41°C° 0.3 mm 4 mps 747 mmHg 47%
    14:00 +41°C° 0.3 mm 4 mps 746 mmHg 46%
    15:00 +41°C° 0.3 mm 4 mps 745 mmHg 45%
    16:00 +41°C° 0 mm 4 mps 745 mmHg 47%
    17:00 +40°C° 0 mm 4 mps 745 mmHg 49%
    18:00 +40°C° 0 mm 4 mps 745 mmHg 50%
    19:00 +39°C° 0 mm 5 mps 745 mmHg 53%
    20:00 +38°C° 0 mm 6 mps 745 mmHg 56%
    21:00 +36°C° 0 mm 7 mps 746 mmHg 59%
    22:00 +35°C° 0.4 mm 7 mps 746 mmHg 64%
    23:00 +34°C° 0.4 mm 7 mps 746 mmHg 68%

    24 June, Sunday

    Time Temperature Precipitation Wind Pressure Humidity
    00:00 +33°C° 0.4 mm 6 mps 747 mmHg 73%
    01:00 +33°C° 0.1 mm 6 mps 747 mmHg 74%
    02:00 +33°C° 0.1 mm 6 mps 746 mmHg 74%
    03:00 +32°C° 0.1 mm 5 mps 746 mmHg 74%
    04:00 +32°C° 0 mm 5 mps 746 mmHg 75%
    05:00 +32°C° 0 mm 5 mps 746 mmHg 76%
    06:00 +32°C° 0 mm 5 mps 746 mmHg 76%
    07:00 +34°C° 0 mm 5 mps 746 mmHg 71%
    08:00 +35°C° 0 mm 4 mps 747 mmHg 66%
    09:00 +36°C° 0 mm 4 mps 748 mmHg 61%
    10:00 +38°C° 0.2 mm 4 mps 747 mmHg 56%
    11:00 +40°C° 0.2 mm 4 mps 747 mmHg 52%
    12:00 +41°C° 0.2 mm 4 mps 747 mmHg 47%
    13:00 +41°C° 0.5 mm 4 mps 746 mmHg 47%
    14:00 +40°C° 0.5 mm 3 mps 745 mmHg 48%
    15:00 +40°C° 0.5 mm 3 mps 745 mmHg 49%
    16:00 +40°C° 0.1 mm 4 mps 745 mmHg 53%
    17:00 +39°C° 0.1 mm 5 mps 745 mmHg 57%
    18:00 +38°C° 0.1 mm 6 mps 745 mmHg 61%
    19:00 +36°C° 1.1 mm 6 mps 745 mmHg 65%
    20:00 +35°C° 1.1 mm 6 mps 746 mmHg 69%
    21:00 +33°C° 1.1 mm 7 mps 746 mmHg 73%
    22:00 +33°C° 0.4 mm 7 mps 746 mmHg 75%
    23:00 +33°C° 0.4 mm 6 mps 746 mmHg 76%

    25 June, Monday

    Time Temperature Precipitation Wind Pressure Humidity
    00:00 +33°C° 0.4 mm 6 mps 747 mmHg 77%
    01:00 +32°C° 0 mm 6 mps 746 mmHg 78%
    02:00 +32°C° 0 mm 5 mps 746 mmHg 79%
    03:00 +32°C° 0 mm 5 mps 746 mmHg 80%
    04:00 +32°C° 0 mm 5 mps 746 mmHg 79%
    05:00 +32°C° 0 mm 5 mps 746 mmHg 79%
    06:00 +32°C° 0 mm 5 mps 746 mmHg 79%
    07:00 +33°C° 0 mm 5 mps 746 mmHg 75%
    08:00 +34°C° 0 mm 5 mps 747 mmHg 72%
    09:00 +35°C° 0 mm 5 mps 747 mmHg 68%
    10:00 +37°C° 0.3 mm 4 mps 746 mmHg 63%
    11:00 +38°C° 0.3 mm 3 mps 746 mmHg 58%
    12:00 +39°C° 0.3 mm 3 mps 746 mmHg 53%
    13:00 +40°C° 0.9 mm 4 mps 745 mmHg 55%
    14:00 +38°C° 0.9 mm 4 mps 745 mmHg 56%
    15:00 +39°C° 0.9 mm 5 mps 744 mmHg 57%
    16:00 +38°C° 0.1 mm 6 mps 744 mmHg 60%
    17:00 +38°C° 0.1 mm 6 mps 744 mmHg 63%
    18:00 +36°C° 0.1 mm 6 mps 744 mmHg 66%
    19:00 +35°C° 0.6 mm 6 mps 744 mmHg 70%
    20:00 +33°C° 0.6 mm 6 mps 745 mmHg 74%
    21:00 +32°C° 0.6 mm 6 mps 746 mmHg 78%
    22:00 +32°C° 0.7 mm 6 mps 746 mmHg 80%
    23:00 +32°C° 0.7 mm 6 mps 746 mmHg 81%

    26 June, Tuesday

    Time Temperature Precipitation Wind Pressure Humidity
    00:00 +30°C° 0.7 mm 5 mps 746 mmHg 83%
    01:00 +30°C° 0.4 mm 5 mps 746 mmHg 83%
    02:00 +30°C° 0.4 mm 4 mps 746 mmHg 83%
    03:00 +30°C° 0.4 mm 4 mps 745 mmHg 82%
    04:00 +30°C° 0.5 mm 4 mps 745 mmHg 82%
    05:00 +30°C° 0.5 mm 5 mps 746 mmHg 82%
    06:00 +30°C° 0.5 mm 5 mps 746 mmHg 82%
    07:00 +33°C° 0.1 mm 5 mps 746 mmHg 76%
    08:00 +34°C° 0.1 mm 5 mps 747 mmHg 71%
    09:00 +36°C° 0.1 mm 5 mps 747 mmHg 65%
    10:00 +36°C° 1 mm 5 mps 747 mmHg 61%
    11:00 +37°C° 1 mm 5 mps 747 mmHg 58%
    12:00 +39°C° 1 mm 5 mps 746 mmHg 55%
    13:00 +39°C° 0.5 mm 5 mps 746 mmHg 54%
    14:00 +39°C° 0.5 mm 6 mps 745 mmHg 53%
    15:00 +39°C° 0.5 mm 6 mps 745 mmHg 52%
    16:00 +39°C° 0.1 mm 6 mps 745 mmHg 54%
    17:00 +38°C° 0.1 mm 6 mps 745 mmHg 56%
    18:00 +37°C° 0.1 mm 5 mps 745 mmHg 57%
    19:00 +35°C° 0.2 mm 6 mps 746 mmHg 61%
    20:00 +34°C° 0.2 mm 6 mps 746 mmHg 64%
    21:00 +33°C° 0.2 mm 6 mps 747 mmHg 67%
    22:00 +32°C° 0.1 mm 5 mps 747 mmHg 70%
    23:00 +32°C° 0.1 mm 4 mps 747 mmHg 74%
    Show more